[[{"header":{"parameterUnit":"m.s-1","parameterCategory":1,"la1":30.2991,"la2":30.254,"lo1":-89.0895,"lo2":-89.0444,"dy":0.0017,"dx":0.0017,"nx":28,"ny":28,"refTime":"2024-05-08T03:00:00:Z","depth":0,"parameterNumber":2,"parameterNumberName":"U-component_of_WINDS"},"data":[0,0,0,0,0,0,0,0,0,0,0,0,0,0,0,0,0,0,0,0,0,0,0,0,0,0,0,0,0,0,0,0,0,0,0,0,0,0,0,0,0,0,0,0,0,0,0,0,0,0,0,0,0,0,0,0,0,0,-1.5029,-1.5029,0,-1.5045,-1.5045,-1.5045,-1.5039,-1.5039,-1.5038,-1.5038,-1.5057,-1.5057,-1.5058,0,0,0,0,0,0,0,0,0,0,0,0,0,-1.4996,-1.4997,-1.5029,-1.5029,-1.5029,-1.5045,-1.5045,-1.5045,-1.5039,-1.5039,-1.5038,-1.5038,-1.5056,-1.5057,-1.5058,0,0,0,0,0,0,0,0,0,0,0,0,0,-1.5011,-1.4997,-1.5029,-1.5028,-1.5028,-1.5045,-1.5045,-1.5045,-1.5039,-1.5039,-1.5038,-1.5038,-1.5056,-1.5057,-1.5058,-1.5077,0,0,-1.5062,-1.5063,0,0,0,0,0,0,0,0,-1.501,-1.5012,-1.5028,-1.5028,-1.5028,-1.5039,-1.504,-1.5056,-1.5039,-1.5035,-1.5038,-1.5037,-1.5051,-1.5053,-1.5057,-1.5078,-1.5079,-1.5062,-1.5063,-1.5064,-1.5064,0,0,0,0,0,0,0,-1.5009,-1.5011,-1.5035,-1.5028,-1.5029,-1.5028,-1.5029,-1.5043,-1.5046,-1.5036,-1.5035,-1.5037,-1.5051,-1.5056,-1.5058,-1.5079,-1.5062,-1.5063,-1.5064,-1.5065,-1.5117,-1.5118,0,0,0,0,0,0,-1.5008,-1.5011,-1.5035,-1.5036,-1.5018,-1.5029,-1.5031,-1.5036,-1.5046,-1.5047,-1.5037,-1.5037,-1.5054,-1.5056,-1.5058,-1.5081,-1.5064,-1.5065,-1.5066,-1.5117,-1.5117,-1.5118,0,0,0,0,0,0,-1.5007,-1.501,-1.5034,-1.5023,-1.5026,-1.503,-1.5037,-1.5037,-1.5042,-1.5048,-1.5048,-1.5041,-1.5054,-1.5057,-1.5073,-1.5082,-1.5065,-1.5067,-1.5116,-1.5117,-1.5118,-1.5127,0,0,0,0,0,0,-1.5006,-1.501,-1.5016,-1.5023,-1.5027,-1.5047,-1.5037,-1.5038,-1.5044,-1.5043,-1.5052,-1.5052,-1.5054,-1.5071,-1.5074,-1.5083,-1.5068,-1.5115,-1.5116,-1.5117,-1.5126,-1.5129,-1.513,0,0,0,0,0,-1.5005,-1.5019,-1.5017,-1.502,-1.5035,-1.5048,-1.505,-1.505,-1.5044,-1.5051,-1.5055,-1.5052,-1.508,-1.5072,-1.5076,-1.5086,-1.5114,-1.5116,-1.5117,-1.5125,-1.5128,-1.513,0,0,0,0,0,0,-1.5013,-1.502,-1.5017,-1.5034,-1.504,-1.5047,-1.5056,-1.5053,-1.5062,-1.5061,-1.5062,-1.5064,-1.5081,-1.5085,-1.5076,-1.5105,-1.5097,-1.5099,-1.5102,-1.5104,-1.5106,-1.5105,-1.5069,0,0,0,0,0,-1.5017,-1.5026,-1.5032,-1.5046,-1.5049,-1.5052,-1.5058,-1.5057,-1.5064,-1.5067,-1.5072,-1.508,-1.5091,-1.5098,-1.5108,-1.5127,-1.5129,-1.5136,-1.5138,-1.5139,-1.5141,-1.5152,-1.5155,-1.5123,-1.5123,-1.5123,0,0,-1.5025,-1.503,-1.5036,-1.5048,-1.5053,-1.5063,-1.5054,-1.5066,-1.5073,-1.5069,-1.5085,-1.5089,-1.5097,-1.5115,-1.5123,-1.5119,-1.5151,-1.5141,-1.5143,-1.5144,-1.5154,-1.5157,-1.516,-1.5124,-1.5124,-1.5123,0,0,-1.5045,-1.5049,-1.5061,-1.5066,-1.5074,-1.5076,-1.5079,-1.5086,-1.5088,-1.5103,-1.51,-1.511,-1.5129,-1.5135,-1.5141,-1.5163,-1.5161,-1.5167,-1.5178,-1.5188,-1.5191,-1.5193,-1.5202,-1.5205,-1.5169,-1.5169,-1.5169,0,-1.5054,-1.5068,-1.5068,-1.5079,-1.5085,-1.5081,-1.5094,-1.5099,-1.511,-1.5115,-1.511,-1.5133,-1.5138,-1.5158,-1.5163,-1.5168,-1.5172,-1.5166,-1.519,-1.5193,-1.5195,-1.5203,-1.5206,-1.5169,-1.5169,-1.5169,-1.5169,0,-1.508,-1.509,-1.5099,-1.5109,-1.5115,-1.5128,-1.513,-1.5137,-1.5136,-1.5139,-1.5155,-1.5161,-1.5173,-1.5177,-1.5177,-1.5197,-1.5194,-1.519,-1.5182,-1.5199,-1.5206,-1.5209,-1.517,-1.517,-1.517,-1.517,0,0,-1.5105,-1.5114,-1.5118,-1.5122,-1.513,-1.5139,-1.5151,-1.5161,-1.5168,-1.5175,-1.5186,-1.5202,-1.5198,-1.5205,-1.5205,-1.5214,-1.5232,-1.5209,-1.5209,-1.5213,-1.5255,-1.5258,-1.5262,-1.5231,-1.5231,-1.5232,-1.5254,0,-1.5126,-1.5146,-1.5146,-1.5166,-1.5176,-1.5172,-1.5183,-1.519,-1.5193,-1.5202,-1.5206,-1.5217,-1.5211,-1.5215,-1.5224,-1.5228,-1.5241,-1.5226,-1.5241,-1.5242,-1.5239,-1.5265,-1.5269,-1.529,-1.5257,-1.5258,-1.5258,0,-1.5152,-1.516,-1.518,-1.5187,-1.5191,-1.5201,-1.5211,-1.5219,-1.5227,-1.5229,-1.5236,-1.5235,-1.5249,-1.524,-1.5259,-1.5249,-1.5256,-1.5259,-1.526,-1.5261,-1.5251,-1.5268,-1.5296,-1.53,-1.5263,-1.5262,-1.5262,0,-1.5169,-1.5185,-1.5199,-1.5203,-1.5211,-1.5218,-1.5222,-1.5229,-1.5236,-1.5245,-1.5249,-1.526,-1.5266,-1.5274,-1.5277,-1.527,-1.5296,-1.5287,-1.5298,-1.5298,-1.5304,-1.5304,-1.5334,-1.5308,-1.5308,-1.5308,-1.5308,0,-1.5193,-1.5205,-1.5207,-1.5216,-1.523,-1.523,-1.5244,-1.5248,-1.5254,-1.5264,-1.5262,-1.5272,-1.5274,-1.5285,-1.5287,-1.5303,-1.5305,-1.5308,-1.5308,-1.5308,-1.5308,-1.5312,-1.5311,-1.5308,-1.5308,-1.5308,-1.5308,0,-1.5214,-1.5216,-1.5231,-1.5237,-1.5239,-1.5249,-1.5255,-1.5264,-1.5266,-1.5279,-1.5282,-1.5287,-1.5299,-1.5302,-1.5317,-1.5318,-1.5337,-1.5336,-1.5334,-1.5334,-1.5345,-1.5344,-1.5379,-1.5384,-1.5355,-1.5355,-1.5355,0,-1.5229,-1.5238,-1.5245,-1.5251,-1.5255,-1.5265,-1.5272,-1.5272,-1.5279,-1.5289,-1.5297,-1.5308,-1.5318,-1.5338,-1.5343,-1.5354,-1.5354,-1.5365,-1.5355,-1.5355,-1.5354,-1.5354,-1.5355,-1.5367,-1.5368,-1.5368,-1.5368,0,-1.5255,-1.5255,-1.5264,-1.5273,-1.528,-1.5288,-1.5295,-1.53,-1.5302,-1.531,-1.5322,-1.5329,-1.5344,-1.5356,-1.5367,-1.5372,-1.5371,-1.5371,-1.5374,-1.5374,-1.5373,-1.5374,-1.5339,-1.537,-1.537,-1.537,-1.537,-1.537,-1.5274,-1.5283,-1.5289,-1.5298,-1.5304,-1.531,-1.5319,-1.5322,-1.5332,-1.5343,-1.5343,-1.5356,-1.5364,-1.5379,-1.5385,-1.5396,-1.5393,-1.5397,-1.5398,-1.54,-1.5401,-1.5371,-1.5398,-1.5398,-1.5398,-1.5398,-1.5398,0,-1.5301,-1.5304,-1.5313,-1.5323,-1.5331,-1.5327,-1.5335,-1.5342,-1.5353,-1.5361,-1.537,-1.5383,-1.5395,-1.5401,-1.5413,-1.542,-1.542,-1.5423,-1.5423,-1.5424,-1.5403,-1.5399,-1.5423,-1.5423,-1.5423,-1.5423,-1.5423,-1.5423,-1.5316,-1.5329,-1.533,-1.5347,-1.5351,-1.5363,-1.5367,-1.5374,-1.5379,-1.5395,-1.5404,-1.5407,-1.5414,-1.5426,-1.5437,-1.5439,-1.5443,-1.5447,-1.5448,-1.5428,-1.5426,-1.5423,-1.542,-1.5448,-1.5448,-1.5469,-1.5469,-1.5469]},{"header":{"parameterUnit":"m.s-1","parameterCategory":1,"la1":30.2991,"la2":30.254,"lo1":-89.0895,"lo2":-89.0444,"dy":0.0017,"dx":0.0017,"nx":28,"ny":28,"refTime":"2024-05-08T03:00:00:Z","depth":0,"parameterNumber":3,"parameterNumberName":"V-component_of_WINDS"},"data":[0,0,0,0,0,0,0,0,0,0,0,0,0,0,0,0,0,0,0,0,0,0,0,0,0,0,0,0,0,0,0,0,0,0,0,0,0,0,0,0,0,0,0,0,0,0,0,0,0,0,0,0,0,0,0,0,0,0,6.6651,6.6652,0,6.6711,6.6711,6.6712,6.6665,6.6663,6.6661,6.6659,6.6714,6.6717,6.6721,0,0,0,0,0,0,0,0,0,0,0,0,0,6.6492,6.6495,6.6651,6.6652,6.6653,6.6711,6.6711,6.6712,6.6665,6.6663,6.6661,6.6658,6.6713,6.6717,6.6721,0,0,0,0,0,0,0,0,0,0,0,0,0,6.6557,6.6496,6.6651,6.6637,6.6636,6.6711,6.6712,6.6712,6.6666,6.6663,6.666,6.6657,6.6712,6.6717,6.6721,6.6812,0,0,6.6737,6.6739,0,0,0,0,0,0,0,0,6.6554,6.6563,6.6638,6.6638,6.6637,6.6678,6.6675,6.6746,6.6667,6.6654,6.6659,6.6656,6.6704,6.6709,6.6727,6.6814,6.6817,6.6737,6.674,6.6742,6.6744,0,0,0,0,0,0,0,6.6549,6.656,6.6675,6.6639,6.6639,6.6625,6.6631,6.6688,6.6695,6.6655,6.6652,6.666,6.6703,6.6722,6.6728,6.6817,6.6737,6.6741,6.6744,6.6746,6.6983,6.6986,0,0,0,0,0,0,6.6547,6.6557,6.6673,6.6676,6.6587,6.6631,6.6637,6.6668,6.6694,6.6696,6.6662,6.6658,6.6715,6.6722,6.673,6.6838,6.6742,6.6747,6.675,6.6979,6.6983,6.6987,0,0,0,0,0,0,6.6544,6.6558,6.667,6.6616,6.6629,6.6637,6.6671,6.667,6.6689,6.67,6.67,6.6681,6.6713,6.6723,6.6792,6.6839,6.6749,6.6754,6.6975,6.6981,6.6985,6.7054,0,0,0,0,0,0,6.6539,6.6557,6.6592,6.6617,6.6632,6.6734,6.6674,6.6674,6.6699,6.6693,6.6717,6.6719,6.6712,6.6785,6.6797,6.6844,6.6757,6.6971,6.6978,6.6984,6.7048,6.7061,6.7072,0,0,0,0,0,6.6534,6.6608,6.6594,6.6609,6.6677,6.6737,6.6745,6.6737,6.6703,6.6738,6.6745,6.6718,6.6832,6.6793,6.6806,6.6855,6.6968,6.6976,6.6983,6.7042,6.7058,6.7072,0,0,0,0,0,0,6.6585,6.6611,6.6596,6.6681,6.6707,6.6729,6.6772,6.6754,6.6789,6.6782,6.6769,6.6775,6.6848,6.6858,6.6814,6.6944,6.6894,6.6905,6.6935,6.695,6.6962,6.6958,6.6762,0,0,0,0,0,6.6607,6.6655,6.6674,6.6747,6.6761,6.6765,6.679,6.6782,6.6808,6.6818,6.683,6.6855,6.6896,6.6924,6.6962,6.7049,6.7053,6.7089,6.7101,6.7111,6.712,6.7167,6.7183,6.7011,6.7011,6.7011,0,0,6.6652,6.6671,6.6702,6.6758,6.6777,6.6826,6.6774,6.6827,6.6863,6.6826,6.6893,6.6903,6.6929,6.7008,6.7044,6.7019,6.7169,6.7121,6.7129,6.7132,6.7177,6.7193,6.7207,6.7016,6.7015,6.7015,0,0,6.6758,6.6778,6.6841,6.6863,6.6894,6.6896,6.6912,6.6936,6.6942,6.701,6.6984,6.7024,6.7096,6.7117,6.7136,6.7252,6.7229,6.7265,6.7328,6.7374,6.7388,6.74,6.7441,6.7456,6.7274,6.7274,6.7274,0,6.6808,6.6883,6.6875,6.6932,6.6957,6.6928,6.6991,6.7012,6.7053,6.707,6.7043,6.7133,6.7149,6.7232,6.7261,6.7278,6.7294,6.7262,6.7387,6.7399,6.7409,6.7449,6.7464,6.7278,6.7278,6.7277,6.7277,0,6.6943,6.6995,6.7042,6.7086,6.7116,6.7176,6.7176,6.7208,6.7197,6.7202,6.7271,6.729,6.7332,6.7351,6.7341,6.7434,6.7418,6.7389,6.7338,6.743,6.7467,6.7482,6.7284,6.7283,6.7281,6.728,0,0,6.7082,6.7123,6.7141,6.7161,6.7194,6.7233,6.7291,6.7335,6.7362,6.7391,6.7439,6.7501,6.7475,6.7497,6.7489,6.7529,6.762,6.7495,6.7496,6.7518,6.7724,6.7746,6.7763,6.7605,6.7608,6.761,6.7722,0,6.719,6.7294,6.729,6.7385,6.7433,6.7407,6.7457,6.7482,6.7489,6.7529,6.7534,6.7579,6.7541,6.7555,6.7594,6.7601,6.7661,6.7593,6.7648,6.765,6.7642,6.7782,6.7805,6.7909,6.7736,6.7739,6.774,0,6.7329,6.7367,6.7469,6.7496,6.7516,6.7561,6.7602,6.7641,6.7668,6.767,6.7696,6.7682,6.7739,6.7688,6.7766,6.772,6.7742,6.7749,6.7753,6.7757,6.7701,6.779,6.7942,6.7958,6.7763,6.7761,6.7759,0,6.7421,6.7497,6.7567,6.7585,6.7619,6.7652,6.7667,6.7692,6.7719,6.7753,6.777,6.781,6.7832,6.7863,6.7859,6.7822,6.7939,6.7887,6.7941,6.7941,6.7966,6.7964,6.8123,6.7981,6.7981,6.798,6.798,0,6.7542,6.7605,6.7609,6.7653,6.7722,6.7717,6.7785,6.7796,6.7819,6.7863,6.7842,6.7884,6.7876,6.7917,6.7914,6.798,6.799,6.7992,6.799,6.7994,6.7993,6.8008,6.8,6.7984,6.7983,6.7983,6.7982,0,6.7655,6.7661,6.7737,6.7764,6.7772,6.7822,6.7844,6.7884,6.7889,6.7946,6.7958,6.7966,6.8013,6.8013,6.8066,6.8064,6.8144,6.8134,6.8136,6.8134,6.8187,6.8182,6.8361,6.8384,6.8227,6.8228,6.8229,0,6.7732,6.778,6.7813,6.7843,6.7861,6.7908,6.7936,6.7932,6.7962,6.7998,6.8034,6.808,6.8117,6.8193,6.8202,6.8243,6.8234,6.8294,6.824,6.8242,6.8235,6.8232,6.8237,6.8304,6.8306,6.8307,6.8308,0,6.7867,6.7868,6.7911,6.7956,6.7991,6.8024,6.8056,6.808,6.808,6.8114,6.8164,6.8192,6.8248,6.8294,6.8334,6.8347,6.8328,6.8326,6.834,6.8344,6.8343,6.8344,6.8164,6.8321,6.832,6.8319,6.8318,6.8318,6.7965,6.8007,6.8037,6.8086,6.811,6.814,6.818,6.8191,6.8233,6.828,6.8275,6.833,6.8356,6.8408,6.8425,6.8467,6.8446,6.8467,6.8472,6.8477,6.8484,6.8337,6.8474,6.8474,6.8474,6.8473,6.8473,0,6.8099,6.8118,6.8163,6.8209,6.8247,6.8228,6.8262,6.8294,6.8344,6.8372,6.8409,6.8466,6.8511,6.8524,6.8567,6.8598,6.859,6.8609,6.8607,6.861,6.85,6.8483,6.8615,6.8615,6.8615,6.8615,6.8615,6.8615,6.8173,6.8244,6.8249,6.8331,6.8349,6.8405,6.8426,6.8453,6.8475,6.8541,6.8579,6.8588,6.861,6.8655,6.8694,6.8697,6.8713,6.8736,6.8735,6.8632,6.8618,6.8604,6.8588,6.874,6.874,6.8842,6.8843,6.8844]}]]